Location: Sternwarte Zollern-Alb
(48.2880°N, 8.6780°E)
Time: 02:28:36
(UTC+02:00)

ISS - Pass Details

Date: 24 April 2026
Orbit: 414 x 424 km, 51.6° (Epoch: 19 May)

Event Time Altitude Azimuth Distance (km) Brightness Sun altitude
Exits shadow 03:58:16 27° 132° (SE) 849 -2.3 -19.9°
Drops below altitude 10° 04:00:51 10° 83° (E) 1,501 -0.3 -19.6°
Sets 04:03:08 0° 71° (ENE) 2,371 1.1 -19.4°
